Kalamazoo, MI

9:32 PM EDT on August 19, 2017 (GMT -0400)
Kalamazoo-Battle Creek International

Weather History for KAZO - October, 2012

Change the Weather History Date:

Thursday, October 11, 2012

  Actual Average Record
Temperature  
Mean Temperature 48 °F 52 °F  
Max Temperature 63 °F 62 °F 84 °F (1962)
Min Temperature 33 °F 42 °F 26 °F (1964)
Degree Days  
Heating Degree Days 17 13  
Month to date heating degree days 160 125  
Since 1 July heating degree days 315 274  
Cooling Degree Days 0 0  
Month to date cooling degree days 0 7  
Year to date cooling degree days 1048 674  
Moisture  
Dew Point 34 °F    
Average Humidity 62    
Maximum Humidity 89    
Minimum Humidity 34    
Precipitation  
Precipitation T in 0.11 in 1.19 in (1954)
Month to date precipitation 0.58 1.18  
Year to date precipitation 21.11 28.59  
Sea Level Pressure  
Sea Level Pressure 30.14 in    
Wind  
Wind Speed 12 mph (SW)    
Max Wind Speed 26 mph    
Max Gust Speed 33 mph    
Visibility 10 miles    
Events Rain    
T = Trace of Precipitation, MM = Missing Value Source: NWS Daily Summary

Daily Weather History Graph

Daily Weather History Graph

Search for Another Location

Airport or City:

Trip Planner

Search our weather history database for the weather conditions in past years. The results will help you decide how hot, cold, wet, or windy it might be!

Date:

Astronomy

Oct. 11, 2012 Rise Set
Actual Time 7:50 AM EDT 7:05 PM EDT
Civil Twilight 7:22 AM EDT 7:34 PM EDT
Nautical Twilight 6:50 AM EDT 8:06 PM EDT
Astronomical Twilight 6:17 AM EDT 8:38 PM EDT
Moon 3:24 AM EDT (10/11) 4:45 PM EDT (10/11)
Length of Visible Light 12h 11m
Length of Day
11h 15m
Waning Crescent, 18% of the Moon is Illuminated
Oct 11
Waning Crescent
Oct 15
New
Oct 21
First Quarter
Oct 29
Full
Nov 6
Last Quarter

Hourly Weather History & Observations

Time (EDT) Temp. Windchill Dew Point Humidity Pressure Visibility Wind Dir Wind Speed Gust Speed Precip Events Conditions
12:53 AM 36.0 °F 30.3 °F 30.0 °F 79% 30.19 in 10.0 mi SW 6.9 mph - N/A   Clear
1:53 AM 36.0 °F 33.3 °F 30.0 °F 79% 30.18 in 10.0 mi South 3.5 mph - N/A   Clear
2:53 AM 34.0 °F 28.8 °F 28.9 °F 82% 30.19 in 10.0 mi South 5.8 mph - N/A   Clear
3:53 AM 35.1 °F 30.1 °F 30.0 °F 82% 30.18 in 10.0 mi South 5.8 mph - N/A   Clear
4:53 AM 34.0 °F 27.2 °F 30.9 °F 89% 30.17 in 10.0 mi South 8.1 mph - N/A   Clear
5:53 AM 34.0 °F 28.0 °F 30.0 °F 85% 30.18 in 10.0 mi South 6.9 mph - N/A   Clear
6:53 AM 33.8 °F 26.4 °F 30.2 °F 87% 30.17 in 10.0 mi SSW 9.2 mph - N/A   Clear
7:53 AM 35.1 °F 26.9 °F 30.9 °F 85% 30.18 in 10.0 mi South 11.5 mph - N/A   Clear
8:53 AM 39.0 °F 31.8 °F 30.9 °F 73% 30.17 in 10.0 mi SSW 11.5 mph - N/A   Clear
9:53 AM 45.0 °F 39.7 °F 33.1 °F 63% 30.18 in 10.0 mi SW 10.4 mph - N/A   Clear
10:53 AM 50.0 °F - 33.1 °F 52% 30.16 in 10.0 mi SW 13.8 mph 26.5 mph N/A   Clear
11:53 AM 55.0 °F - 33.1 °F 43% 30.14 in 10.0 mi SW 24.2 mph 31.1 mph N/A   Scattered Clouds
12:53 PM 57.9 °F - 33.1 °F 39% 30.12 in 10.0 mi SW 16.1 mph 27.6 mph N/A   Clear
1:53 PM 59.0 °F - 33.1 °F 38% 30.09 in 10.0 mi SW 19.6 mph 28.8 mph N/A   Clear
2:53 PM 61.0 °F - 34.0 °F 36% 30.07 in 10.0 mi WSW 16.1 mph 27.6 mph N/A   Clear
3:53 PM 62.1 °F - 34.0 °F 35% 30.07 in 10.0 mi WSW 17.3 mph 27.6 mph N/A   Clear
4:53 PM 62.1 °F - 33.1 °F 34% 30.06 in 10.0 mi WSW 17.3 mph 28.8 mph N/A   Clear
5:53 PM 60.8 °F - 33.8 °F 36% 30.04 in 10.0 mi SW 15.0 mph 19.6 mph N/A   Clear
6:53 PM 57.2 °F - 33.8 °F 41% 30.05 in 10.0 mi SSW 6.9 mph - N/A   Clear
7:53 PM 54.0 °F - 36.0 °F 51% 30.08 in 10.0 mi SSW 6.9 mph - N/A   Overcast
8:53 PM 53.6 °F - 41.0 °F 62% 30.10 in 10.0 mi North 15.0 mph - N/A   Overcast
9:53 PM 50.0 °F - 39.9 °F 68% 30.16 in 10.0 mi North 15.0 mph - N/A   Overcast
10:53 PM 48.0 °F - 39.9 °F 74% 30.19 in 10.0 mi North 12.7 mph - N/A   Overcast
11:29 PM 46.4 °F 40.4 °F 39.2 °F 76% 30.20 in 10.0 mi North 13.8 mph - 0.00 in Rain Light Rain
11:53 PM 46.4 °F 40.1 °F 39.2 °F 76% 30.21 in 9.0 mi North 15.0 mph - N/A Rain Light Rain